period_start,C,m1,H,J0,J1,J2,J3,J4,J5,JA,JB,JC,JD,JJ,JK,JN,#
2018-06-26 00:01:18,0.01,0.55,0.00,23.32,27.05,30.04,14.06,46.92,1024.43,2028.02,3109.99,2946.83,3365.99,599.91,599.89,22.55,0000 0000 0000 0000 000000
2018-06-26 00:06:19,0.01,0.55,0.00,23.31,27.03,30.04,14.04,46.88,1024.43,2028.09,3109.97,2946.76,3365.98,600.01,600.09,22.60,0000 0000 0000 0000 000000
2018-06-26 00:11:20,-0.00,0.55,0.00,23.30,27.02,30.04,14.01,46.91,1024.43,2028.14,3109.97,2946.86,3365.99,600.19,600.24,22.65,0000 0000 0000 0000 000000
2018-06-26 00:16:21,0.05,0.55,0.00,23.30,27.01,30.05,14.04,47.00,1024.43,2028.55,3109.92,2946.91,3365.99,600.23,600.08,22.70,0000 0000 0000 0000 000000
2018-06-26 00:21:22,0.02,0.55,0.00,23.32,27.00,30.01,14.00,46.88,1024.43,2028.80,3109.85,2946.91,3365.99,599.89,599.85,22.75,0000 0000 0000 0000 000000
2018-06-26 00:26:23,0.00,0.55,0.00,23.30,26.99,30.01,14.02,46.92,1024.43,2028.85,3109.95,2946.94,3365.99,600.06,600.07,22.80,0000 0000 0000 0000 000000
2018-06-26 00:31:24,0.00,0.55,0.00,23.29,26.97,29.97,14.07,46.98,1024.43,2028.95,3109.95,2946.96,3365.99,600.05,600.18,22.85,0000 0000 0000 0000 000000
2018-06-26 00:36:26,0.04,0.56,0.00,23.27,26.97,29.99,14.07,47.17,1024.43,2028.98,3109.22,2946.28,3365.78,600.20,600.25,22.90,0000 0000 0000 0000 000000
2018-06-26 00:41:27,-0.00,0.56,0.00,23.27,26.95,29.96,13.95,46.98,1024.43,2028.98,3108.99,2946.12,3365.78,599.93,600.00,22.95,0000 0000 0000 0000 000000
2018-06-26 00:46:28,0.00,0.56,0.00,23.27,26.95,29.95,14.05,46.98,1024.43,2028.99,3108.98,2946.16,3365.81,599.92,599.94,23.00,0000 0000 0000 0000 000000
2018-06-26 00:51:29,-0.00,0.56,0.00,23.27,26.93,29.93,14.05,47.03,1024.43,2028.99,3108.99,2946.27,3365.90,600.24,600.31,23.05,0000 0000 0000 0000 000000
2018-06-26 00:56:30,0.01,0.56,0.00,23.28,26.92,29.93,14.06,47.13,1024.43,2028.99,3108.97,2946.13,3365.77,600.35,600.21,23.10,0000 0000 0000 0000 000000
2018-06-26 01:01:32,-0.00,0.56,0.00,23.29,26.92,29.92,13.99,47.26,1024.44,2028.99,3108.97,2946.25,3365.90,599.86,599.90,23.15,0000 0000 0000 0000 000000
2018-06-26 01:06:33,0.01,0.56,0.00,23.30,26.90,29.89,14.06,47.29,1024.43,2028.99,3108.89,2946.20,3365.85,600.08,600.09,23.20,0000 0000 0000 0000 000000
2018-06-26 01:11:35,-0.01,0.56,0.00,23.30,26.90,29.88,14.04,47.31,1024.44,2028.99,3108.93,2946.30,3365.93,600.03,600.01,23.25,0000 0000 0000 0000 000000
2018-06-26 01:16:36,0.00,0.56,0.00,23.30,26.90,29.85,14.09,47.24,1024.43,2028.99,3108.95,2946.35,3365.93,600.19,600.22,23.30,0000 0000 0000 0000 000000
2018-06-26 01:21:37,-0.01,0.56,0.00,23.30,26.89,29.84,14.05,47.23,1024.44,2028.99,3108.92,2946.49,3365.96,600.25,600.26,23.35,0000 0000 0000 0000 000000
2018-06-26 01:26:39,0.00,0.56,0.00,23.30,26.88,29.84,14.00,47.10,1024.45,2029.00,3108.97,2946.65,3365.97,599.78,599.83,23.40,0000 0000 0000 0000 000000
2018-06-26 01:31:40,-0.00,0.56,0.00,23.31,26.87,29.83,14.02,47.13,1024.45,2029.01,3108.97,2946.79,3365.97,600.06,600.07,23.45,0000 0000 0000 0000 000000
2018-06-26 01:36:41,-0.00,0.56,0.00,23.32,26.87,29.81,14.03,47.06,1024.43,2029.01,3108.98,2946.88,3365.99,599.85,599.96,23.50,0000 0000 0000 0000 000000
2018-06-26 01:41:42,0.01,0.56,0.00,23.33,26.87,29.74,13.99,47.09,1024.43,2029.00,3108.93,2946.62,3365.98,599.92,599.88,23.55,0000 0000 0000 0000 000000
2018-06-26 01:46:43,-0.00,0.56,0.00,23.33,26.87,29.79,14.10,47.18,1024.43,2029.01,3108.93,2946.66,3365.97,600.59,600.53,23.60,0000 0000 0000 0000 000000
2018-06-26 01:51:44,0.01,0.56,0.00,23.34,26.87,29.74,14.00,47.18,1024.43,2029.00,3108.83,2946.40,3365.95,600.28,600.20,23.65,0000 0000 0000 0000 000000
2018-06-26 01:56:46,0.01,0.56,0.00,23.36,26.87,29.69,13.99,47.12,1024.43,2029.00,3108.60,2946.12,3365.77,600.08,599.87,23.70,0000 0000 0000 0000 000000
2018-06-26 02:01:47,-0.01,0.56,0.00,23.37,26.87,29.72,14.02,47.14,1024.43,2029.01,3108.58,2946.19,3365.82,600.14,600.01,23.75,0000 0000 0000 0000 000000
2018-06-26 02:06:49,-0.01,0.56,0.00,23.37,26.87,29.73,14.05,46.98,1024.43,2029.04,3108.87,2946.63,3365.96,600.17,600.13,23.80,0000 0000 0000 0000 000000
2018-06-26 02:11:50,0.02,0.56,0.00,23.37,26.87,29.67,14.04,47.12,1024.43,2029.03,3108.58,2946.31,3365.92,599.96,599.75,23.85,0000 0000 0000 0000 000000
2018-06-26 02:16:51,-0.01,0.56,0.00,23.39,26.87,29.69,14.02,47.08,1024.41,2029.00,3108.65,2946.30,3365.85,599.64,599.46,23.90,0000 0000 0000 0000 000000
2018-06-26 02:21:52,-0.00,0.56,0.00,23.40,26.87,29.69,14.05,46.99,1024.43,2029.02,3108.67,2946.44,3365.93,600.20,600.01,23.95,0000 0000 0000 0000 000000
2018-06-26 02:26:54,0.02,0.56,0.00,23.40,26.88,29.66,13.89,46.95,1024.43,2029.01,3108.36,2946.14,3365.45,599.94,599.78,24.00,0000 0000 0000 0000 000000
2018-06-26 02:31:55,0.00,0.56,0.00,23.41,26.89,29.67,13.99,47.17,1024.43,2029.00,3108.17,2946.08,3365.25,599.87,599.72,24.05,0000 0000 0000 0000 000000
2018-06-26 02:36:56,0.00,0.56,0.00,23.42,26.89,29.64,14.04,47.13,1024.41,2029.00,3108.08,2946.03,3365.09,600.04,599.72,24.10,0000 0000 0000 0000 000000
2018-06-26 02:41:58,0.00,0.56,0.00,23.43,26.90,29.64,14.00,47.12,1024.43,2029.00,3108.05,2946.02,3365.02,599.62,599.31,24.15,0000 0000 0000 0000 000000
2018-06-26 02:46:59,0.00,0.56,0.00,23.44,26.90,29.63,14.04,46.93,1024.43,2029.00,3108.03,2946.00,3365.02,600.50,600.30,24.20,0000 0000 0000 0000 000000
2018-06-26 02:52:00,0.00,0.56,0.00,23.45,26.90,29.61,13.99,47.02,1024.42,2029.00,3108.03,2946.00,3365.00,599.82,599.61,24.25,0000 0000 0000 0000 000000
2018-06-26 02:57:01,0.00,0.56,0.00,23.45,26.90,29.65,14.00,47.05,1024.42,2029.00,3108.00,2946.00,3365.00,599.72,599.54,24.30,0000 0000 0000 0000 000000
2018-06-26 03:02:03,0.00,0.56,0.00,23.45,26.90,29.65,14.03,46.97,1024.39,2029.00,3108.00,2946.00,3365.00,600.19,599.79,24.35,0000 0000 0000 0000 000000
2018-06-26 03:07:04,0.00,0.56,0.00,23.45,26.90,29.69,13.96,46.83,1024.35,2029.00,3108.00,2946.00,3365.00,599.95,599.60,24.40,0000 0000 0000 0000 000000
2018-06-26 03:12:06,0.00,0.56,0.00,23.45,26.90,29.71,14.00,46.84,1024.30,2029.00,3108.00,2946.00,3365.00,600.27,599.87,24.45,0000 0000 0000 0000 000000
2018-06-26 03:17:07,0.00,0.56,0.00,23.45,26.90,29.68,13.97,46.82,1024.24,2029.00,3108.00,2946.00,3365.00,599.73,599.34,24.50,0000 0000 0000 0000 000000
2018-06-26 03:22:08,0.00,0.56,0.00,23.42,26.90,29.69,13.99,46.85,1024.15,2029.00,3108.00,2946.00,3365.00,599.91,599.47,24.55,0000 0000 0000 0000 000000
2018-06-26 03:27:09,0.00,0.56,0.00,23.42,26.90,29.69,14.01,46.86,1024.13,2028.99,3107.98,2946.00,3364.99,599.49,599.10,24.60,0000 0000 0000 0000 000000
2018-06-26 03:32:10,0.00,0.56,0.00,23.42,26.90,29.73,13.97,47.00,1024.09,2028.99,3107.98,2945.99,3364.97,600.10,599.73,24.65,0000 0000 0000 0000 000000
2018-06-26 03:37:11,0.00,0.56,0.00,23.42,26.90,29.78,14.00,47.02,1023.98,2028.99,3107.97,2945.99,3364.98,599.69,599.02,24.70,0000 0000 0000 0000 000000
2018-06-26 03:42:13,0.00,0.56,0.00,23.41,26.90,29.74,13.96,46.94,1023.97,2028.99,3107.98,2945.99,3364.98,599.50,599.07,24.76,0000 0000 0000 0000 000000
2018-06-26 03:47:14,0.00,0.56,0.00,23.40,26.90,29.77,14.05,46.92,1023.96,2028.99,3107.93,2945.99,3364.98,599.99,599.54,24.81,0000 0000 0000 0000 000000
2018-06-26 03:52:15,0.00,0.56,0.00,23.40,26.90,29.79,14.00,47.04,1023.95,2028.99,3107.90,2945.99,3364.98,599.79,599.31,24.86,0000 0000 0000 0000 000000
2018-06-26 03:57:16,0.00,0.56,0.00,23.41,26.90,29.82,14.04,47.02,1023.94,2028.99,3107.59,2945.97,3364.93,600.40,599.78,24.91,0000 0000 0000 0000 000000
2018-06-26 04:02:17,-0.00,0.56,0.00,23.40,26.90,29.80,14.05,46.89,1023.94,2028.99,3107.46,2945.98,3364.94,600.00,599.53,24.96,0000 0000 0000 0000 000000
2018-06-26 04:07:19,0.00,0.56,0.00,23.38,26.90,29.80,13.98,46.67,1023.94,2028.99,3107.21,2945.98,3364.91,599.47,599.06,25.01,0000 0000 0000 0000 000000
2018-06-26 04:12:20,-0.00,0.56,0.00,23.37,26.90,29.81,14.00,46.88,1023.94,2028.99,3107.20,2945.96,3364.92,599.76,599.31,25.06,0000 0000 0000 0000 000000
2018-06-26 04:17:22,0.00,0.56,0.00,23.38,26.90,29.87,14.00,46.90,1023.94,2028.99,3107.15,2945.94,3364.90,599.91,599.58,25.11,0000 0000 0000 0000 000000
2018-06-26 04:22:23,-0.00,0.56,0.00,23.37,26.90,29.82,14.07,46.97,1023.94,2028.99,3107.10,2945.96,3364.88,600.13,599.73,25.16,0000 0000 0000 0000 000000
2018-06-26 04:27:24,0.00,0.56,0.00,23.37,26.90,29.84,13.99,46.96,1023.94,2028.99,3107.03,2945.94,3364.70,600.13,599.62,25.21,0000 0000 0000 0000 000000
2018-06-26 04:32:26,-0.00,0.56,0.00,23.36,26.90,29.90,14.00,46.87,1023.93,2028.99,3107.01,2945.96,3364.79,599.68,599.34,25.26,0000 0000 0000 0000 000000
2018-06-26 04:37:27,0.00,0.56,0.00,23.35,26.90,29.84,14.01,46.91,1023.93,2028.99,3107.01,2945.92,3364.67,600.02,599.63,25.31,0000 0000 0000 0000 000000
2018-06-26 04:42:29,-0.00,0.56,0.00,23.34,26.90,29.86,13.95,47.04,1023.94,2028.99,3107.00,2945.93,3364.73,599.81,599.51,25.36,0000 0000 0000 0000 000000
2018-06-26 04:47:30,0.00,0.56,0.00,23.34,26.89,29.88,14.03,47.16,1023.94,2029.00,3107.00,2945.92,3364.59,600.24,600.06,25.41,0000 0000 0000 0000 000000
2018-06-26 04:52:31,0.01,0.56,0.00,23.32,26.87,29.86,14.02,47.28,1023.94,2029.00,3107.00,2945.76,3364.16,599.73,599.41,25.46,0000 0000 0000 0000 000000
2018-06-26 04:57:32,0.00,0.56,0.00,23.31,26.87,29.89,13.99,47.13,1023.94,2029.00,3107.00,2945.80,3364.18,600.28,599.93,25.51,0000 0000 0000 0000 000000
2018-06-26 05:02:33,0.01,0.56,0.00,23.30,26.87,29.86,14.02,47.17,1023.94,2029.00,3106.99,2945.55,3364.10,599.77,599.53,25.56,0000 0000 0000 0000 000000
2018-06-26 05:07:35,-0.00,0.56,0.00,23.29,26.87,29.87,13.97,47.09,1023.94,2029.01,3106.99,2945.59,3364.08,599.66,599.32,25.61,0000 0000 0000 0000 000000
2018-06-26 05:12:36,-0.01,0.56,0.00,23.29,26.87,29.84,14.02,47.01,1023.94,2029.01,3106.99,2945.78,3364.23,600.15,599.87,25.66,0000 0000 0000 0000 000000
2018-06-26 05:17:37,0.01,0.56,0.00,23.30,26.86,29.88,14.05,47.15,1023.94,2029.02,3106.98,2945.80,3364.19,600.02,599.69,25.71,0000 0000 0000 0000 000000
2018-06-26 05:22:38,-0.00,0.56,0.00,23.28,26.85,29.87,14.03,47.06,1023.94,2029.01,3106.98,2945.76,3364.10,600.12,599.78,25.76,0000 0000 0000 0000 000000
2018-06-26 05:27:40,-0.00,0.56,0.00,23.27,26.85,29.84,14.06,47.09,1023.94,2029.02,3106.98,2945.81,3364.21,600.07,599.92,25.81,0000 0000 0000 0000 000000
2018-06-26 05:32:41,0.01,0.56,0.00,23.26,26.85,29.84,13.99,47.11,1023.88,2029.04,3106.98,2945.85,3364.27,600.36,600.20,25.86,0000 0000 0000 0000 000000
2018-06-26 05:37:42,0.01,0.56,0.00,23.25,26.85,29.81,14.04,46.96,1023.54,2029.01,3106.94,2945.69,3364.10,600.10,599.60,25.91,0000 0000 0000 0000 000000
2018-06-26 05:42:43,0.00,0.56,0.00,23.24,26.84,29.86,13.97,47.07,1023.45,2029.08,3106.95,2945.84,3364.21,599.68,599.23,25.96,0000 0000 0000 0000 000000
2018-06-26 05:47:44,0.01,0.56,0.00,23.24,26.82,29.83,14.01,47.02,1023.45,2029.20,3106.95,2945.94,3364.40,599.89,599.44,26.01,0000 0000 0000 0000 000000
2018-06-26 05:52:45,-0.01,0.56,0.00,23.23,26.82,29.85,14.07,46.90,1023.45,2029.28,3106.96,2945.96,3364.42,600.05,599.74,26.06,0000 0000 0000 0000 000000
2018-06-26 05:57:47,0.01,0.56,0.00,23.22,26.82,29.83,14.07,47.08,1023.44,2029.34,3106.95,2945.95,3364.45,600.20,599.78,26.11,0000 0000 0000 0000 000000
2018-06-26 06:02:48,0.00,0.56,0.00,23.20,26.82,29.82,14.03,46.93,1023.44,2029.37,3106.94,2945.94,3364.40,600.18,599.70,26.16,0000 0000 0000 0000 000000
2018-06-26 06:07:49,0.02,0.56,0.00,23.20,26.81,29.81,13.98,47.06,1023.20,2029.58,3106.89,2945.95,3364.48,599.71,599.33,26.21,0000 0000 0000 0000 000000
2018-06-26 06:12:50,0.02,0.56,0.00,23.19,26.80,29.81,14.07,47.09,1023.04,2029.72,3106.63,2945.90,3364.26,599.83,599.42,26.26,0000 0000 0000 0000 000000
2018-06-26 06:17:52,0.00,0.56,0.00,23.19,26.80,29.77,14.01,46.97,1023.13,2029.71,3106.25,2945.88,3364.13,600.39,599.85,26.31,0000 0000 0000 0000 000000
2018-06-26 06:22:53,0.01,0.56,0.00,23.18,26.80,29.79,14.04,47.01,1023.25,2029.82,3106.24,2945.90,3364.21,599.85,599.42,26.36,0000 0000 0000 0000 000000
2018-06-26 06:27:54,0.00,0.57,0.00,23.17,26.78,29.78,14.00,46.96,1023.24,2029.87,3106.12,2945.88,3364.13,600.12,599.69,26.41,0000 0000 0000 0000 000000
2018-06-26 06:32:56,-0.01,0.57,0.00,23.17,26.77,29.77,14.09,47.02,1023.20,2029.94,3106.48,2945.97,3364.44,600.17,600.05,26.46,0000 0000 0000 0000 000000
2018-06-26 06:37:57,0.01,0.57,0.00,23.15,26.77,29.75,14.07,47.11,1023.13,2029.96,3106.32,2945.97,3364.42,600.45,600.02,26.51,0000 0000 0000 0000 000000
2018-06-26 06:42:58,-0.01,0.57,0.00,23.15,26.77,29.78,14.08,47.06,1023.10,2029.97,3106.37,2945.98,3364.64,600.57,600.25,26.56,0000 0000 0000 0000 000000
2018-06-26 06:47:59,0.00,0.57,0.00,23.14,26.76,29.76,13.98,46.99,1022.98,2029.98,3106.27,2945.98,3364.66,599.48,599.09,26.61,0000 0000 0000 0000 000000
2018-06-26 06:53:00,0.00,0.57,0.00,23.14,26.75,29.77,14.07,47.14,1022.96,2029.97,3106.22,2945.97,3364.59,599.80,599.41,26.66,0000 0000 0000 0000 000000
2018-06-26 06:58:01,0.00,0.57,0.00,23.13,26.75,29.75,14.07,47.16,1022.96,2029.99,3106.33,2945.99,3364.73,600.27,599.85,26.71,0000 0000 0000 0000 000000
2018-06-26 07:03:03,0.00,0.57,0.00,23.12,26.75,29.74,14.02,47.10,1022.95,2029.98,3106.15,2945.98,3364.68,599.82,599.35,26.76,0000 0000 0000 0000 000000
2018-06-26 07:08:04,0.01,0.57,0.00,23.12,26.73,29.76,14.01,47.12,1022.87,2029.98,3106.04,2945.98,3364.54,599.65,599.15,26.81,0000 0000 0000 0000 000000
2018-06-26 07:13:05,-0.00,0.57,0.00,23.11,26.72,29.74,14.07,47.01,1022.73,2029.98,3106.03,2945.98,3364.40,600.23,599.65,26.86,0000 0000 0000 0000 000000
2018-06-26 07:18:06,-0.00,0.57,0.00,23.10,26.72,29.72,14.03,46.99,1022.60,2029.99,3106.05,2945.99,3364.60,599.81,599.15,26.91,0000 0000 0000 0000 000000
2018-06-26 07:23:08,0.00,0.57,0.00,23.09,26.72,29.75,14.00,47.17,1022.52,2029.99,3106.07,2945.98,3364.69,600.08,599.61,26.96,0000 0000 0000 0000 000000
2018-06-26 07:28:09,0.00,0.57,0.00,23.10,26.70,29.74,14.01,47.18,1022.49,2029.99,3106.03,2945.98,3364.70,600.22,599.51,27.01,0000 0000 0000 0000 000000
2018-06-26 07:33:10,-0.00,0.57,0.00,23.09,26.70,29.73,14.00,47.10,1022.49,2029.99,3106.05,2945.99,3364.67,599.79,599.05,27.06,0000 0000 0000 0000 000000
2018-06-26 07:38:11,0.00,0.57,0.00,23.07,26.70,29.68,14.06,47.16,1022.48,2029.99,3106.03,2945.98,3364.61,600.33,599.60,27.11,0000 0000 0000 0000 000000
2018-06-26 07:43:13,-0.01,0.57,0.00,23.05,26.69,29.71,14.08,47.20,1022.48,2029.99,3106.02,2945.99,3364.75,600.14,599.46,27.16,0000 0000 0000 0000 000000
2018-06-26 07:48:14,-0.00,0.57,0.00,23.05,26.67,29.70,14.03,46.98,1022.52,2029.99,3106.02,2945.99,3364.80,599.99,599.34,27.21,0000 0000 0000 0000 000000
2018-06-26 07:53:16,0.00,0.57,0.00,23.05,26.67,29.67,13.97,46.87,1022.61,2030.00,3106.02,2945.99,3364.87,599.81,599.32,27.26,0000 0000 0000 0000 000000
2018-06-26 07:58:17,-0.00,0.57,0.00,23.04,26.67,29.67,14.00,46.94,1022.65,2030.00,3106.01,2945.99,3364.83,599.71,599.18,27.31,0000 0000 0000 0000 000000
2018-06-26 08:03:19,0.00,0.57,0.00,23.02,26.66,29.68,14.01,46.97,1022.69,2030.00,3106.01,2945.99,3364.82,600.03,599.55,27.36,0000 0000 0000 0000 000000
2018-06-26 08:08:20,-0.00,0.57,0.00,23.02,26.65,29.67,14.02,47.00,1022.52,2030.00,3106.00,2945.99,3364.90,600.10,599.52,27.41,0000 0000 0000 0000 000000
2018-06-26 08:13:22,-0.00,0.57,0.00,23.02,26.65,29.68,14.00,47.07,1022.54,2030.02,3106.01,2945.99,3364.95,599.81,599.33,27.46,0000 0000 0000 0000 000000
2018-06-26 08:18:23,0.00,0.57,0.00,23.02,26.65,29.68,14.03,46.89,1022.52,2030.02,3106.02,2945.99,3364.96,600.04,599.54,27.51,0000 0000 0000 0000 000000
2018-06-26 08:23:24,0.00,0.57,0.00,23.01,26.63,29.67,13.99,47.01,1022.51,2030.03,3106.01,2945.99,3364.97,599.97,599.34,27.56,0000 0000 0000 0000 000000
2018-06-26 08:28:26,0.00,0.57,0.00,22.98,26.62,29.65,13.94,46.89,1022.49,2030.04,3106.01,2945.99,3364.98,599.76,599.22,27.62,0000 0000 0000 0000 000000
2018-06-26 08:33:27,-0.00,0.57,0.00,22.98,26.62,29.64,14.02,47.23,1022.48,2030.05,3106.00,2946.00,3364.97,600.28,599.78,27.67,0000 0000 0000 0000 000000
2018-06-26 08:38:28,0.01,0.57,0.00,22.97,26.61,29.64,14.03,47.24,1022.48,2030.12,3106.00,2946.00,3364.97,600.14,599.68,27.72,0000 0000 0000 0000 000000
2018-06-26 08:43:29,0.04,0.57,0.00,22.97,26.60,29.59,14.01,47.16,1022.48,2030.42,3106.00,2946.00,3364.98,600.08,599.47,27.77,0000 0000 0000 0000 000000
2018-06-26 08:48:31,-0.02,0.57,0.00,22.97,26.60,29.61,14.05,47.14,1022.48,2030.42,3106.00,2946.00,3364.96,599.87,599.32,27.82,0000 0000 0000 0000 000000
2018-06-26 08:53:32,0.01,0.57,0.00,22.96,26.58,29.60,14.04,47.32,1022.48,2030.48,3106.00,2946.00,3364.98,600.10,599.70,27.87,0000 0000 0000 0000 000000
2018-06-26 08:58:34,0.02,0.57,0.00,22.96,26.57,29.62,14.02,47.28,1022.48,2030.67,3106.00,2946.00,3364.96,599.69,599.25,27.92,0000 0000 0000 0000 000000
2018-06-26 09:03:35,0.01,0.57,0.00,22.93,26.57,29.59,14.01,47.24,1022.38,2030.93,3106.00,2946.01,3364.99,599.78,599.36,27.97,0000 0000 0000 0000 000000
2018-06-26 09:08:36,0.00,0.57,0.00,22.93,26.57,29.57,14.09,47.27,1022.11,2030.87,3105.99,2946.01,3364.98,600.66,600.07,28.02,0000 0000 0000 0000 000000
2018-06-26 09:13:38,0.00,0.57,0.00,22.93,26.55,29.57,13.97,47.31,1022.03,2030.89,3105.99,2946.01,3364.95,599.46,598.83,28.07,0000 0000 0000 0000 000000
2018-06-26 09:18:39,-0.00,0.57,0.00,22.92,26.55,29.57,14.04,47.34,1022.17,2030.97,3105.99,2946.02,3364.97,600.19,599.63,28.12,0000 0000 0000 0000 000000
2018-06-26 09:23:40,0.00,0.57,0.00,22.91,26.55,29.57,14.01,47.26,1022.40,2030.98,3105.99,2946.02,3364.98,599.94,599.57,28.17,0000 0000 0000 0000 000000
2018-06-26 09:28:41,0.00,0.57,0.00,22.90,26.53,29.56,14.04,47.40,1022.41,2030.98,3105.99,2946.03,3364.98,600.16,599.80,28.22,0000 0000 0000 0000 000000
2018-06-26 09:33:43,-0.00,0.57,0.00,22.89,26.52,29.55,14.03,47.33,1022.44,2030.96,3105.98,2946.02,3364.98,599.80,599.50,28.27,0000 0000 0000 0000 000000
2018-06-26 09:38:44,-0.00,0.57,0.00,22.89,26.51,29.54,14.00,47.23,1022.46,2030.98,3105.96,2946.02,3364.97,600.04,599.70,28.32,0000 0000 0000 0000 000000
2018-06-26 09:43:45,0.00,0.57,0.00,22.87,26.50,29.50,14.00,47.26,1022.48,2030.99,3105.98,2946.05,3364.98,599.79,599.50,28.37,0000 0000 0000 0000 000000
2018-06-26 09:48:46,0.00,0.57,0.00,22.87,26.50,29.51,14.02,47.38,1022.45,2030.99,3105.98,2946.07,3364.99,599.77,599.63,28.42,0000 0000 0000 0000 000000
2018-06-26 09:53:47,-0.00,0.57,0.00,22.85,26.48,29.50,14.03,47.28,1022.29,2030.99,3105.97,2946.23,3364.99,600.06,599.78,28.47,0000 0000 0000 0000 000000
2018-06-26 09:58:49,-0.01,0.57,0.00,22.84,26.47,29.51,14.01,47.39,1022.08,2030.99,3105.99,2946.62,3364.99,599.74,599.30,28.52,0000 0000 0000 0000 000000
2018-06-26 10:03:50,-0.00,0.57,0.00,22.83,26.46,29.46,14.03,47.39,1022.00,2030.99,3105.99,2946.81,3364.99,600.09,599.67,28.57,0000 0000 0000 0000 000000
2018-06-26 10:08:51,0.01,0.57,0.00,22.82,26.45,29.46,14.01,47.34,1021.99,2030.99,3105.99,2946.67,3365.00,599.87,599.50,28.62,0000 0000 0000 0000 000000
2018-06-26 10:13:52,-0.00,0.57,0.00,22.82,26.45,29.47,13.99,47.23,1021.99,2031.00,3105.99,2946.91,3365.01,600.09,599.83,28.67,0000 0000 0000 0000 000000
2018-06-26 10:18:54,-0.00,0.57,0.00,22.79,26.43,29.47,14.02,47.39,1021.99,2031.02,3105.99,2946.96,3365.04,599.72,599.23,28.72,0000 0000 0000 0000 000000
2018-06-26 10:23:55,0.00,0.57,0.00,22.79,26.42,29.45,13.97,47.30,1021.99,2031.02,3105.99,2946.96,3365.02,599.81,599.39,28.77,0000 0000 0000 0000 000000
2018-06-26 10:28:56,0.00,0.57,0.00,22.79,26.41,29.43,14.05,47.30,1021.99,2031.08,3105.99,2946.99,3365.14,600.28,599.75,28.82,0000 0000 0000 0000 000000
2018-06-26 10:33:57,-0.00,0.57,0.00,22.77,26.40,29.43,14.02,47.40,1021.99,2031.04,3105.99,2946.99,3365.12,600.25,599.90,28.87,0000 0000 0000 0000 000000
2018-06-26 10:38:58,0.01,0.57,0.00,22.77,26.39,29.41,14.12,47.40,1021.99,2031.21,3105.99,2946.99,3365.25,600.09,599.89,28.92,0000 0000 0000 0000 000000
2018-06-26 10:43:59,0.00,0.57,0.00,22.75,26.37,29.40,14.05,47.47,1021.99,2031.26,3105.99,2946.99,3365.30,599.94,599.67,28.97,0000 0000 0000 0000 000000
2018-06-26 10:49:00,0.01,0.57,0.00,22.74,26.37,29.41,14.03,47.34,1021.98,2031.45,3105.99,2946.99,3365.46,600.18,600.06,29.02,0000 0000 0000 0000 000000
2018-06-26 10:54:02,0.01,0.57,0.00,22.73,26.35,29.40,14.03,47.41,1021.97,2031.61,3105.99,2946.99,3365.55,600.09,599.90,29.07,0000 0000 0000 0000 000000
2018-06-26 10:59:03,0.01,0.57,0.00,22.72,26.35,29.39,14.02,47.40,1021.64,2031.78,3106.00,2946.99,3365.81,599.85,599.33,29.12,0000 0000 0000 0000 000000
2018-06-26 11:04:04,0.00,0.57,0.00,22.71,26.35,29.37,13.96,47.37,1021.56,2031.92,3106.00,2946.99,3365.88,599.50,598.97,29.17,0000 0000 0000 0000 000000
2018-06-26 11:09:06,0.00,0.57,0.00,22.70,26.33,29.37,13.99,47.27,1021.74,2031.94,3106.00,2947.00,3365.96,599.65,599.36,29.22,0000 0000 0000 0000 000000
2018-06-26 11:14:07,0.00,0.57,0.00,22.68,26.32,29.37,14.03,47.20,1021.75,2031.97,3106.01,2947.01,3365.98,599.86,599.52,29.27,0000 0000 0000 0000 000000
2018-06-26 11:19:09,-0.00,0.57,0.00,22.67,26.32,29.34,13.96,47.25,1021.62,2031.98,3106.00,2947.01,3365.97,599.94,599.66,29.32,0000 0000 0000 0000 000000
2018-06-26 11:24:10,-0.00,0.57,0.00,22.66,26.30,29.33,14.01,47.32,1021.54,2031.98,3106.01,2947.02,3365.98,599.87,599.48,29.37,0000 0000 0000 0000 000000
2018-06-26 11:29:11,0.00,0.57,0.00,22.65,26.30,29.34,14.07,47.32,1021.53,2031.97,3106.01,2947.02,3365.98,600.26,599.92,29.42,0000 0000 0000 0000 000000
2018-06-26 11:34:12,-0.00,0.57,0.00,22.63,26.28,29.32,14.00,47.25,1021.51,2031.98,3106.00,2947.02,3365.98,599.87,599.64,29.47,0000 0000 0000 0000 000000
2018-06-26 11:39:13,-0.00,0.57,0.00,22.62,26.27,29.32,14.03,47.38,1021.51,2031.97,3106.00,2947.01,3365.99,599.73,599.39,29.52,0000 0000 0000 0000 000000
2018-06-26 11:44:14,0.00,0.57,0.00,22.60,26.27,29.30,14.13,47.27,1021.51,2031.99,3106.02,2947.06,3365.99,600.09,599.83,29.57,0000 0000 0000 0000 000000
2018-06-26 11:49:16,0.00,0.57,0.00,22.58,26.25,29.31,14.08,47.27,1021.50,2031.99,3106.03,2947.22,3365.99,599.98,599.68,29.62,0000 0000 0000 0000 000000
2018-06-26 11:54:17,-0.00,0.57,0.00,22.57,26.25,29.30,14.05,47.28,1021.50,2031.99,3106.03,2947.28,3365.99,599.67,599.35,29.67,0000 0000 0000 0000 000000
2018-06-26 11:59:19,-0.01,0.57,0.00,22.56,26.23,29.29,14.04,47.23,1021.32,2031.99,3106.14,2947.78,3366.00,600.11,599.81,29.72,0000 0000 0000 0000 000000
2018-06-26 12:04:20,-0.00,0.57,0.00,22.53,26.22,29.29,14.01,47.15,1021.05,2031.99,3106.14,2947.93,3366.01,600.10,599.72,29.77,0000 0000 0000 0000 000000
2018-06-26 12:09:21,-0.00,0.57,0.00,22.51,26.21,29.27,14.07,47.14,1021.02,2031.99,3106.15,2947.93,3366.05,599.97,599.64,29.82,0000 0000 0000 0000 000000
2018-06-26 12:14:22,-0.01,0.57,0.00,22.49,26.20,29.28,14.03,47.15,1021.01,2032.00,3106.43,2947.98,3366.12,600.19,599.89,29.87,0000 0000 0000 0000 000000
2018-06-26 12:19:23,-0.00,0.57,0.00,22.48,26.19,29.24,14.07,47.13,1021.01,2032.01,3106.45,2947.98,3366.10,600.10,599.89,29.92,0000 0000 0000 0000 000000
2018-06-26 12:24:24,-0.01,0.57,0.00,22.46,26.17,29.25,14.12,47.29,1021.01,2032.03,3106.74,2947.99,3366.56,600.27,600.03,29.97,0000 0000 0000 0000 000000
2018-06-26 12:29:25,-0.00,0.57,0.00,22.45,26.16,29.25,14.06,47.13,1021.01,2032.04,3106.78,2947.99,3366.77,600.33,600.11,30.02,0000 0000 0000 0000 000000
2018-06-26 12:34:27,0.00,0.57,0.00,22.42,26.15,29.23,14.00,47.25,1021.00,2032.08,3106.76,2947.99,3366.80,600.11,599.93,30.07,0000 0000 0000 0000 000000
2018-06-26 12:39:28,0.01,0.57,0.00,22.39,26.13,29.19,14.07,47.24,1020.92,2032.19,3106.83,2947.99,3366.92,600.28,600.02,30.12,0000 0000 0000 0000 000000
2018-06-26 12:44:29,0.02,0.57,0.00,22.37,26.12,29.18,14.07,47.22,1020.71,2032.41,3106.92,2948.00,3366.97,599.99,599.68,30.17,0000 0000 0000 0000 000000
2018-06-26 12:49:30,0.03,0.57,0.00,22.35,26.11,29.18,13.99,47.12,1020.57,2032.84,3106.98,2948.02,3366.98,599.91,599.65,30.22,0000 0000 0000 0000 000000
2018-06-26 12:54:31,-0.00,0.57,0.00,22.34,26.10,29.17,14.03,47.17,1020.54,2032.91,3106.97,2948.03,3366.99,599.87,599.62,30.27,0000 0000 0000 0000 000000